This demonstration page uses our WeatherBlox Daily Observations layout. Learn more.

Left ArrowRight Arrow

39.29038, -76.61219

Hourly Observations for August 20, 2020

Temp ( °F °C ) Dew Point ( °F °C ) Humidity (%) Winds ( mph kmh ) Pressure ( in mb ) Visibility ( mi km ) Precip ( " mm )
12:54 am 00:54 Partly Cloudy 67 19.4 63 17.2 87 87 WNW 3 6 30.00 1016 10 16 0.00 0.00
1:54 am 01:54 Partly Cloudy 67 19.4 61 16.1 81 81 Calm 30.00 1016 10 16 0.00 0.00
2:54 am 02:54 Mostly Cloudy 68 20 60 15.6 76 76 Calm 30.00 1016 10 16 0.00 0.00
3:54 am 03:54 Mostly Cloudy 67 19.4 59 15 76 76 NNE 3 6 30.01 1016 10 16 0.00 0.00
4:54 am 04:54 Partly Cloudy 67 19.4 58 14.4 73 73 NNE 6 9 30.02 1017 10 16 0.00 0.00
5:54 am 05:54 Partly Cloudy 66 18.9 57 13.9 73 73 NNE 5 7 30.04 1017 10 16 0.00 0.00
6:54 am 06:54 Mostly Cloudy 66 18.9 56 13.3 70 70 NNE 3 6 30.05 1018 10 16 0.00 0.00
7:54 am 07:54 Partly Cloudy 70 21.1 57 13.9 64 64 NNE 5 7 30.06 1018 10 16 0.00 0.00
8:54 am 08:54 Mostly Cloudy 71 21.7 58 14.4 63 63 ENE 8 13 30.06 1018 10 16 0.00 0.00
9:54 am 09:54 Mostly Cloudy 74 23.3 61 16.1 64 64 ENE 9 15 30.08 1019 10 16 0.00 0.00
10:54 am 10:54 Mostly Cloudy 76 24.4 62 16.7 62 62 E 8 13 30.08 1019 10 16 0.00 0.00
11:54 am 11:54 Mostly Cloudy 78 25.6 64 17.8 62 62 E 9 15 30.07 1018 10 16 0.00 0.00
12:54 pm 12:54 Mostly Cloudy 79 26.1 62 16.7 56 56 ESE 7 11 30.06 1018 10 16 0.00 0.00
1:54 pm 13:54 Mostly Cloudy 79 26.1 62 16.7 56 56 VRB 5 7 30.05 1018 10 16 0.00 0.00
2:54 pm 14:54 Mostly Cloudy 82 27.8 62 16.7 51 51 ESE 7 11 30.03 1017 10 16 0.00 0.00
3:54 pm 15:54 Mostly Cloudy 82 27.8 61 16.1 49 49 S 6 9 30.01 1016 10 16 0.00 0.00
4:54 pm 16:54 Mostly Cloudy 82 27.8 59 15 46 46 VRB 3 6 29.99 1016 10 16 0.00 0.00
5:54 pm 17:54 Mostly Cloudy 81 27.2 59 15 47 47 SSE 5 7 29.98 1015 10 16 0.00 0.00
6:54 pm 18:54 Partly Cloudy 79 26.1 59 15 50 50 SSE 6 9 29.97 1015 10 16 0.00 0.00
7:54 pm 19:54 Partly Cloudy 76 24.4 59 15 56 56 SE 3 6 29.97 1015 10 16 0.00 0.00
8:54 pm 20:54 Partly Cloudy 75 23.9 60 15.6 60 60 S 5 7 29.99 1016 10 16 0.00 0.00
9:54 pm 21:54 Partly Cloudy 69 20.6 62 16.7 78 78 Calm 30.01 1016 10 16 0.00 0.00
10:54 pm 22:54 Mostly Clear 69 20.6 62 16.7 78 78 Calm 30.01 1016 10 16 0.00 0.00
11:54 pm 23:54 Mostly Cloudy 70 21.1 63 17.2 79 79 S 3 6 30.01 1016 10 16 0.00 0.00

Powered by AerisWeather